| time (UTC) | temp F | wind direction | speed MPH | gust MPH | rain 1hr in | rain 24hr in | rain mn in | humidity % | barometer mb |
| 20260507222742 | 53 | 321 | 6.0 | 10.0 | 0.00 | 0.02 | 0.02 | 44 | 1003.5 |
| 20260507221238 | 54 | 280 | 8.0 | 13.0 | 0.00 | 0.02 | 0.02 | 46 | 1003.4 |
| 20260507215734 | 55 | 293 | 6.0 | 11.0 | 0.00 | 0.02 | 0.02 | 41 | 1003.2 |
| 20260507214232 | 55 | 265 | 6.0 | 13.0 | 0.00 | 0.02 | 0.02 | 42 | 1003.3 |
| 20260507212732 | 55 | 313 | 13.0 | 15.0 | 0.00 | 0.02 | 0.02 | 41 | 1003.3 |
| 20260507211228 | 56 | 250 | 11.0 | 14.0 | 0.00 | 0.02 | 0.02 | 40 | 1003.2 |
| 20260507205724 | 56 | 254 | 10.0 | 15.0 | 0.00 | 0.02 | 0.02 | 39 | 1003.2 |
| 20260507204221 | 56 | 270 | 5.0 | 9.0 | 0.00 | 0.02 | 0.02 | 40 | 1002.7 |
| 20260507202717 | 55 | 312 | 7.0 | 16.0 | 0.00 | 0.02 | 0.02 | 42 | 1002.7 |
| 20260507201218 | 56 | 274 | 7.0 | 11.0 | 0.00 | 0.02 | 0.02 | 44 | 1002.6 |
| 20260507195712 | 56 | 282 | 11.0 | 16.0 | 0.00 | 0.02 | 0.02 | 45 | 1002.7 |
| 20260507194208 | 56 | 281 | 9.0 | 16.0 | 0.00 | 0.02 | 0.02 | 41 | 1002.6 |
| 20260507192704 | 56 | 299 | 11.0 | 11.0 | 0.00 | 0.02 | 0.02 | 46 | 1002.4 |
| 20260507191200 | 56 | 221 | 9.0 | 13.0 | 0.00 | 0.02 | 0.02 | 47 | 1002.5 |
| 20260507185659 | 56 | 262 | 21.0 | 22.0 | 0.00 | 0.02 | 0.02 | 50 | 1002.5 |
| 20260507184157 | 56 | 245 | 10.0 | 18.0 | 0.00 | 0.02 | 0.02 | 48 | 1002.6 |
| 20260507182654 | 55 | 234 | 2.0 | 6.0 | 0.00 | 0.02 | 0.02 | 52 | 1002.7 |
| 20260507181154 | 54 | 256 | 5.0 | 14.0 | 0.00 | 0.02 | 0.02 | 51 | 1003.0 |
| 20260507175649 | 54 | 197 | 12.0 | 22.0 | 0.00 | 0.02 | 0.02 | 52 | 1003.3 |
| 20260507174148 | 54 | 253 | 13.0 | 15.0 | 0.00 | 0.02 | 0.02 | 62 | 1003.3 |
| 20260507172643 | 54 | 270 | 9.0 | 15.0 | 0.00 | 0.02 | 0.02 | 63 | 1003.2 |
| 20260507171138 | 54 | 214 | 11.0 | 13.0 | 0.00 | 0.02 | 0.02 | 62 | 1003.0 |
| 20260507165634 | 54 | 338 | 6.0 | 10.0 | 0.00 | 0.02 | 0.02 | 62 | 1003.5 |
| 20260507164129 | 54 | 236 | 10.0 | 14.0 | 0.00 | 0.02 | 0.02 | 63 | 1003.5 |
| 20260507162625 | 55 | 225 | 5.0 | 7.0 | 0.00 | 0.02 | 0.02 | 63 | 1003.4 |
| 20260507161121 | 54 | 247 | 6.0 | 10.0 | 0.00 | 0.02 | 0.02 | 63 | 1003.5 |
| 20260507155621 | 54 | 287 | 3.0 | 7.0 | 0.00 | 0.02 | 0.02 | 61 | 1003.8 |
| 20260507154118 | 54 | 307 | 8.0 | 10.0 | 0.00 | 0.02 | 0.02 | 67 | 1004.2 |
| 20260507152613 | 53 | 28 | 4.0 | 10.0 | 0.00 | 0.02 | 0.02 | 71 | 1004.2 |
| 20260507151109 | 54 | 320 | 5.0 | 15.0 | 0.00 | 0.02 | 0.02 | 69 | 1004.1 |
| 20260507145603 | 53 | 329 | 5.0 | 8.0 | 0.00 | 0.02 | 0.02 | 70 | 1003.9 |
| 20260507144102 | 53 | 307 | 5.0 | 10.0 | 0.00 | 0.02 | 0.02 | 69 | 1004.0 |
| 20260507142601 | 53 | 253 | 4.0 | 7.0 | 0.00 | 0.02 | 0.02 | 67 | 1004.3 |
| 20260507141057 | 53 | 242 | 3.0 | 9.0 | 0.00 | 0.02 | 0.02 | 73 | 1004.3 |
| 20260507135554 | 52 | 245 | 8.0 | 9.0 | 0.00 | 0.02 | 0.02 | 71 | 1004.7 |
| 20260507134049 | 52 | 292 | 6.0 | 10.0 | 0.00 | 0.02 | 0.02 | 73 | 1004.4 |
| 20260507132546 | 51 | 303 | 5.0 | 8.0 | 0.00 | 0.02 | 0.02 | 74 | 1004.7 |
| 20260507131042 | 51 | 356 | 5.0 | 8.0 | 0.00 | 0.02 | 0.02 | 78 | 1004.8 |
| 20260507125541 | 50 | 339 | 7.0 | 10.0 | 0.00 | 0.02 | 0.02 | 76 | 1005.0 |
| 20260507124038 | 50 | 303 | 4.0 | 5.0 | 0.00 | 0.02 | 0.02 | 77 | 1004.9 |
| 20260507122533 | 49 | 285 | 4.0 | 7.0 | 0.00 | 0.02 | 0.02 | 79 | 1005.2 |
| 20260507121032 | 48 | 298 | 4.0 | 6.0 | 0.00 | 0.02 | 0.02 | 82 | 1005.1 |
| 20260507115528 | 47 | 285 | 3.0 | 11.0 | 0.00 | 0.02 | 0.02 | 82 | 1005.1 |
| 20260507114023 | 46 | 159 | 0.0 | 2.0 | 0.00 | 0.02 | 0.02 | 87 | 1005.3 |
| 20260507112521 | 46 | 165 | 0.0 | 2.0 | 0.00 | 0.02 | 0.02 | 85 | 1005.4 |
| 20260507111016 | 45 | 141 | 0.0 | 3.0 | 0.00 | 0.02 | 0.02 | 85 | 1005.3 |
| 20260507105513 | 45 | 154 | 0.0 | 2.0 | 0.00 | 0.02 | 0.02 | 87 | 1005.6 |
| 20260507104008 | 44 | 126 | 1.0 | 2.0 | 0.00 | 0.02 | 0.02 | 91 | 1005.6 |
| 20260507102504 | 44 | 122 | 2.0 | 3.0 | 0.00 | 0.02 | 0.02 | 94 | 1005.2 |
| 20260507100958 | 43 | 130 | 1.0 | 1.0 | 0.00 | 0.02 | 0.02 | 98 | 1005.2 |
| 20260507095457 | 43 | 140 | 0.0 | 1.0 | 0.00 | 0.02 | 0.02 | 99 | 1005.3 |
| 20260507093953 | 43 | 162 | 0.0 | 1.0 | 0.00 | 0.02 | 0.02 | 99 | 1004.7 |
| 20260507092450 | 43 | 160 | 0.0 | 1.0 | 0.00 | 0.02 | 0.02 | 97 | 1004.8 |
| 20260507090945 | 43 | 147 | 1.0 | 1.0 | 0.00 | 0.02 | 0.02 | 99 | 1005.1 |
| 20260507085441 | 44 | 176 | 0.0 | 1.0 | 0.00 | 0.02 | 0.02 | 98 | 1005.1 |
| 20260507083938 | 44 | 130 | 1.0 | 2.0 | 0.00 | 0.02 | 0.02 | 98 | 1005.2 |
| 20260507082438 | 44 | 104 | 1.0 | 2.0 | 0.00 | 0.02 | 0.02 | 95 | 1004.5 |
| 20260507080935 | 44 | 177 | 0.0 | 1.0 | 0.00 | 0.02 | 0.02 | 96 | 1004.2 |
| 20260507075434 | 44 | 104 | 2.0 | 3.0 | 0.00 | 0.02 | 0.02 | 95 | 1005.0 |
| 20260507073931 | 45 | 125 | 1.0 | 2.0 | 0.00 | 0.02 | 0.02 | 95 | 1005.1 |
| 20260507072428 | 44 | 172 | 0.0 | 1.0 | 0.00 | 0.02 | 0.02 | 97 | 1004.7 |
| 20260507070924 | 44 | 142 | 1.0 | 2.0 | 0.00 | 0.02 | 0.02 | 97 | 1004.1 |
| 20260507065421 | 45 | 84 | 2.0 | 3.0 | 0.00 | 0.02 | 0.02 | 99 | 1004.5 |
| 20260507063920 | 45 | 99 | 3.0 | 6.0 | 0.00 | 0.02 | 0.02 | 98 | 1004.0 |
| 20260507062417 | 45 | 139 | 2.0 | 2.0 | 0.00 | 0.02 | 0.02 | 99 | 1003.9 |
| 20260507060916 | 46 | 116 | 1.0 | 2.0 | 0.00 | 0.02 | 0.02 | 99 | 1004.2 |
| 20260507055416 | 46 | 50 | 1.0 | 5.0 | 0.00 | 0.02 | 0.02 | 99 | 1003.8 |
| 20260507053913 | 46 | 127 | 0.0 | 1.0 | 0.00 | 0.02 | 0.02 | 99 | 1003.8 |
| 20260507052412 | 46 | 118 | 1.0 | 2.0 | 0.00 | 0.02 | 0.02 | 99 | 1003.4 |
| 20260507050909 | 46 | 164 | 0.0 | 0.0 | 0.07 | 0.02 | 0.02 | 99 | 1003.9 |
| 20260507045404 | 47 | 120 | 1.0 | 2.0 | 0.00 | 0.01 | 0.01 | 99 | 1003.9 |
| 20260507043900 | 47 | 325 | 7.0 | 14.0 | 0.00 | 0.01 | 0.01 | 99 | 1003.6 |
| 20260507042356 | 48 | 279 | 9.0 | 10.0 | 0.05 | 0.01 | 0.01 | 96 | 1004.2 |
| 20260507040852 | 48 | 304 | 5.0 | 8.0 | 0.00 | 0.00 | 0.00 | 97 | 1004.1 |
| 20260507035350 | 49 | 300 | 7.0 | 10.0 | 0.07 | 0.71 | 0.71 | 97 | 1004.1 |
| 20260507033848 | 48 | 277 | 4.0 | 11.0 | 0.00 | 0.70 | 0.70 | 99 | 1003.9 |
| 20260507032344 | 49 | 285 | 11.0 | 11.0 | 0.07 | 0.70 | 0.70 | 99 | 1003.6 |
| 20260507030840 | 49 | 130 | 1.0 | 5.0 | 0.05 | 0.69 | 0.69 | 99 | 1003.5 |
| 20260507025337 | 50 | 91 | 1.0 | 3.0 | 0.07 | 0.68 | 0.68 | 99 | 1003.4 |
| 20260507023834 | 51 | 166 | 0.0 | 0.0 | 0.00 | 0.67 | 0.67 | 99 | 1003.3 |
| 20260507022330 | 51 | 326 | 3.0 | 6.0 | 0.00 | 0.66 | 0.66 | 99 | 1003.1 |
| 20260507020825 | 52 | 197 | 0.0 | 1.0 | 0.00 | 0.66 | 0.66 | 99 | 1002.9 |
| 20260507015322 | 52 | 138 | 1.0 | 1.0 | 0.00 | 0.66 | 0.66 | 99 | 1002.8 |
| 20260507013818 | 53 | 181 | 1.0 | 5.0 | 0.00 | 0.66 | 0.66 | 99 | 1003.0 |
| 20260507012314 | 53 | 135 | 1.0 | 1.0 | 0.00 | 0.66 | 0.66 | 99 | 1002.8 |
| 20260507010814 | 53 | 151 | 1.0 | 2.0 | 0.00 | 0.65 | 0.65 | 99 | 1003.0 |
| 20260507005309 | 54 | 186 | 0.0 | 2.0 | 0.12 | 0.64 | 0.64 | 99 | 1002.8 |
| 20260507003806 | 55 | 238 | 5.0 | 8.0 | 0.66 | 0.59 | 0.59 | 99 | 1002.7 |
| 20260507002306 | 56 | 235 | 4.0 | 6.0 | 0.19 | 0.47 | 0.47 | 99 | 1002.1 |
| 20260507000802 | 56 | 186 | 0.0 | 2.0 | 0.05 | 0.43 | 0.43 | 99 | 1002.0 |
| 20260506235256 | 56 | 176 | 1.0 | 2.0 | 0.05 | 0.41 | 0.41 | 99 | 1002.0 |
| 20260506233754 | 56 | 169 | 4.0 | 5.0 | 0.12 | 0.40 | 0.40 | 99 | 1002.1 |
| 20260506232254 | 56 | 169 | 2.0 | 2.0 | 0.07 | 0.38 | 0.38 | 99 | 1002.0 |
| 20260506230751 | 57 | 166 | 0.0 | 5.0 | 0.00 | 0.37 | 0.37 | 99 | 1002.4 |
| 20260506225248 | 57 | 217 | 1.0 | 2.0 | 0.05 | 0.37 | 0.37 | 99 | 1002.3 |